Change the Weather History Date:

Sunday, January 18, 2015

  Actual Average Record
Temperature  
Mean Temperature 48 °F 38 °F  
Max Temperature 61 °F 48 °F 70 °F (1949)
Min Temperature 34 °F 28 °F 5 °F (1977)
Degree Days  
Heating Degree Days 17 27  
Month to date heating degree days 547 486  
Since 1 July heating degree days 1994 1904  
Cooling Degree Days 0 0  
Month to date cooling degree days 0 0  
Year to date cooling degree days 0 0  
Moisture  
Dew Point 25 °F    
Average Humidity 45    
Maximum Humidity 70    
Minimum Humidity 20    
Precipitation  
Precipitation 0.00 in 0.12 in 1.40 in (1950)
Month to date precipitation 0.51 2.29  
Year to date precipitation 0.51 2.29  
Snow  
Snow 0.00 in 0.00 in 1.80 in (1984)
Month to date snowfall T 1.3  
Since 1 July snowfall 0.1 1.6  
Snow Depth 0.00 in    
Sea Level Pressure  
Sea Level Pressure 30.10 in    
Wind  
Wind Speed 10 mph (WSW)    
Max Wind Speed 20 mph    
Max Gust Speed 25 mph    
Visibility 10 miles    
Events      
T = Trace of Precipitation, MM = Missing Value Source: NWS Daily Summary

Daily Weather History Graph

Daily Weather History Graph

Search for Another Location

Airport or City:

Trip Planner

Search our weather history database for the weather conditions in past years. The results will help you decide how hot, cold, wet, or windy it might be!

Date:

Astronomy

Jan. 18, 2015 Rise Set
Actual Time 7:03 AM CST 5:08 PM CST
Civil Twilight 6:36 AM CST 5:36 PM CST
Nautical Twilight 6:04 AM CST 6:07 PM CST
Astronomical Twilight 5:34 AM CST 6:38 PM CST
Moon 4:59 AM CST (1/18) 3:32 PM CST (1/18)
Length of Visible Light 11h 00m
Length of Day
10h 05m
Waning Crescent, 5% of the Moon is Illuminated
Jan 18
Waning Crescent
Jan 20
New
Jan 26
First Quarter
Feb 3
Full
Feb 11
Last Quarter

Hourly Weather History & Observations

Time (CST) Temp. Windchill Dew Point Humidity Pressure Visibility Wind Dir Wind Speed Gust Speed Precip Events Conditions
12:53 AM 48.0 °F - 35.1 °F 61% 30.00 in 10.0 mi West 10.4 mph - N/A   Clear
1:53 AM 45.0 °F 40.1 °F 34.0 °F 65% 30.02 in 10.0 mi West 9.2 mph - N/A   Clear
2:53 AM 43.0 °F 37.2 °F 33.1 °F 68% 30.04 in 10.0 mi West 10.4 mph - N/A   Clear
3:53 AM 44.1 °F 38.1 °F 30.9 °F 60% 30.06 in 10.0 mi WNW 11.5 mph - N/A   Clear
4:53 AM 43.0 °F 37.7 °F 28.0 °F 56% 30.09 in 10.0 mi WNW 9.2 mph - N/A   Clear
5:53 AM 39.0 °F 35.7 °F 27.0 °F 62% 30.12 in 10.0 mi West 4.6 mph - N/A   Clear
6:53 AM 37.0 °F 30.4 °F 28.0 °F 70% 30.14 in 10.0 mi WSW 9.2 mph - N/A   Clear
7:53 AM 41.0 °F 35.2 °F 28.9 °F 62% 30.15 in 10.0 mi WSW 9.2 mph - N/A   Clear
8:53 AM 46.0 °F 40.6 °F 28.0 °F 50% 30.17 in 10.0 mi West 11.5 mph - N/A   Clear
9:53 AM 50.0 °F - 27.0 °F 41% 30.19 in 10.0 mi West 12.7 mph 21.9 mph N/A   Clear
10:53 AM 54.0 °F - 24.1 °F 31% 30.17 in 10.0 mi WSW 16.1 mph 23.0 mph N/A   Clear
11:53 AM 55.9 °F - 24.1 °F 29% 30.15 in 10.0 mi West 12.7 mph 20.7 mph N/A   Clear
12:53 PM 59.0 °F - 21.9 °F 24% 30.12 in 10.0 mi WNW 15.0 mph - N/A   Clear
1:53 PM 60.1 °F - 19.9 °F 21% 30.10 in 10.0 mi West 12.7 mph - N/A   Clear
2:53 PM 61.0 °F - 19.0 °F 20% 30.10 in 10.0 mi WSW 15.0 mph - N/A   Clear
3:53 PM 60.1 °F - 21.0 °F 22% 30.09 in 10.0 mi SW 11.5 mph - N/A   Clear
4:53 PM 54.0 °F - 21.0 °F 28% 30.09 in 10.0 mi SW 8.1 mph - N/A   Clear
5:53 PM 48.9 °F - 19.9 °F 32% 30.09 in 10.0 mi SSW 5.8 mph - N/A   Clear
6:53 PM 46.0 °F 42.5 °F 21.0 °F 37% 30.08 in 10.0 mi SSW 6.9 mph - N/A   Clear
7:53 PM 46.9 °F - 21.9 °F 37% 30.08 in 10.0 mi SSW 5.8 mph - N/A   Clear
8:53 PM 44.1 °F 40.1 °F 21.9 °F 42% 30.09 in 10.0 mi South 6.9 mph - N/A   Clear
9:53 PM 44.1 °F 39.5 °F 24.1 °F 45% 30.09 in 10.0 mi SSW 8.1 mph - N/A   Clear
10:53 PM 46.9 °F - 26.1 °F 44% 30.09 in 10.0 mi SSW 10.4 mph - N/A   Clear
11:53 PM 46.9 °F - 26.1 °F 44% 30.08 in 10.0 mi SSW 12.7 mph - N/A   Clear